Henderson, KY

9:04 AM CST on November 13, 2019 (GMT -0600)
Henderson City-County

Weather History for KEHR - October, 2019

Change the Weather History Date:

Wednesday, October 23, 2019

  Actual Average Record
Temperature  
Mean Temperature 52 °F -  
Max Temperature 68 °F 67 °F 88 °F (1963)
Min Temperature 36 °F 44 °F 26 °F (1997)
Degree Days  
Heating Degree Days 13    
Growing Degree Days 2 (Base 50)    
Moisture  
Dew Point 36 °F    
Average Humidity 56    
Maximum Humidity 89    
Minimum Humidity 30    
Precipitation  
Precipitation 0.00 in - - ()
Sea Level Pressure  
Sea Level Pressure 30.12 in    
Wind  
Wind Speed 7 mph (SSW)    
Max Wind Speed 18 mph    
Max Gust Speed -    
Visibility 10 miles    
Events      
Averages and records for this station are not official NWS values.
T = Trace of Precipitation, MM = Missing Value Source: NWS Daily Summary

Daily Weather History Graph

Daily Weather History Graph

Search for Another Location

Airport or City:

Astronomy

Oct. 23, 2019 Rise Set
Actual Time 7:06 AM CDT 6:02 PM CDT
Civil Twilight 6:39 AM CDT 6:29 PM CDT
Nautical Twilight 6:09 AM CDT 7:00 PM CDT
Astronomical Twilight 5:38 AM CDT 7:30 PM CDT
Moon 1:32 AM CDT (10/23) 3:46 PM CDT (10/23)
Length of Visible Light 11h 49m
Length of Day
10h 56m
Waning Crescent, 26% of the Moon is Illuminated
Oct 23
Waning Crescent
Oct 27
New
Nov 4
First Quarter
Nov 12
Full
Nov 19
Last Quarter

Hourly Weather History & Observations

Time (CDT) Temp. Windchill Dew Point Humidity Pressure Visibility Wind Dir Wind Speed Gust Speed Precip Events Conditions
12:56 AM 44.1 °F 41.5 °F 33.1 °F 65% 30.06 in 10.0 mi SW 4.6 mph - N/A   Clear
1:56 AM 42.1 °F 39.2 °F 33.1 °F 70% 30.08 in 10.0 mi SW 4.6 mph - N/A   Clear
2:56 AM 42.1 °F 39.2 °F 33.1 °F 70% 30.08 in 10.0 mi SW 4.6 mph - N/A   Clear
3:56 AM 39.0 °F 36.8 °F 33.1 °F 79% 30.08 in 10.0 mi SSW 3.5 mph - N/A   Clear
4:56 AM 36.0 °F - 33.1 °F 89% 30.09 in 10.0 mi Calm Calm - N/A   Clear
5:56 AM 37.0 °F 32.4 °F 33.1 °F 86% 30.10 in 10.0 mi SSW 5.8 mph - N/A   Clear
6:56 AM 39.0 °F 35.7 °F 34.0 °F 82% 30.13 in 10.0 mi SSW 4.6 mph - N/A   Clear
7:56 AM 43.0 °F 38.8 °F 37.0 °F 80% 30.13 in 10.0 mi South 6.9 mph - N/A   Clear
8:56 AM 50.0 °F - 39.9 °F 68% 30.16 in 10.0 mi SSW 8.1 mph - N/A   Clear
9:56 AM 55.9 °F - 39.0 °F 53% 30.17 in 10.0 mi SSW 9.2 mph - N/A   Clear
10:56 AM 60.1 °F - 37.0 °F 42% 30.16 in 10.0 mi SSW 13.8 mph - N/A   Clear
11:56 AM 63.0 °F - 36.0 °F 37% 30.16 in 10.0 mi SSW 18.4 mph - N/A   Clear
12:56 PM 66.0 °F - 34.0 °F 30% 30.14 in 10.0 mi SSW 15.0 mph - N/A   Clear
1:56 PM 66.9 °F - 34.0 °F 30% 30.11 in 10.0 mi South 17.3 mph - N/A   Clear
2:56 PM 68.0 °F - 36.0 °F 31% 30.09 in 10.0 mi South 12.7 mph - N/A   Clear
3:56 PM 66.9 °F - 36.0 °F 32% 30.09 in 10.0 mi South 13.8 mph - N/A   Clear
4:56 PM 64.9 °F - 36.0 °F 34% 30.10 in 10.0 mi SSW 15.0 mph - N/A   Clear
6:56 PM 57.9 °F - 37.9 °F 47% 30.11 in 10.0 mi SSE 6.9 mph - N/A   Clear
7:56 PM 57.9 °F - 37.9 °F 47% 30.12 in 10.0 mi SSW 6.9 mph - N/A   Clear
8:56 PM 55.0 °F - 37.9 °F 53% 30.13 in 10.0 mi South 8.1 mph - N/A   Clear
9:56 PM 57.0 °F - 37.9 °F 49% 30.12 in 10.0 mi South 12.7 mph - N/A   Clear
10:56 PM 55.9 °F - 37.9 °F 51% 30.14 in 10.0 mi SSW 10.4 mph - N/A   Clear
11:56 PM 51.1 °F - 37.9 °F 61% 30.16 in 10.0 mi South 6.9 mph - N/A   Clear